Regional Weather Roundup
Issued by NWS Upton, NY

Current Version | Previous Version | Graphics & Text | Print | Product List | Glossary Off
Versions: 1 2 3 4 5 6 7 8 9 10 11 12 13 14 15 16 17 18 19 20 21 22 23 24 25 26 27 28 29 30 31 32 33 34 35 36 37 38 39 40 41 42 43 44 45 46 47 48 49 50

000
ASUS41 KOKX 300908
RWROKX

REGIONAL WEATHER ROUNDUP
NATIONAL WEATHER SERVICE NEW YORK NY
500 AM EDT THU JUL 30 2015

NOTE: "FAIR" INDICATES FEW OR NO CLOUDS BELOW 12,000 FEET WITH NO
SIGNIFICANT WEATHER AND/OR OBSTRUCTIONS TO VISIBILITY.

NYZ071-072-176-178-NJZ106-104-301000-
NEW YORK CITY METRO AREA


CITY           SKY/WX    TMP DP  RH WIND       PRES   REMARKS
CENTRAL PARK   PTCLDY    80  70  71 W8        29.93F
LAGUARDIA APRT PTCLDY    80  71  74 SW6       29.90F
KENNEDY INTL   PTCLDY    76  71  85 S7        29.92F
NEWARK/LIBERTY MOCLDY    78  73  84 S9        29.90F
BRNX BOT. GARD   N/A     79  70  73 SW13      29.91F
TETERBORO      CLEAR     78  71  79 S8        29.89F
$$

NYZ177-179-078>081-301000-
LONG ISLAND NEW YORK

CITY           SKY/WX    TMP DP  RH WIND       PRES   REMARKS
FARMINGDALE    CLEAR     76  72  87 SW7       29.92F
ISLIP          CLEAR     76  73  91 SW7       29.91S
SHIRLEY        CLEAR     77  74  90 SW7       29.93S
WESTHAMPTON    CLEAR     76  74  93 SW10      29.94S
MONTAUK POINT    N/A     76  73  91 SW8       29.93S
$$

NYZ052-065-067-301000-
HUDSON VALLEY

CITY           SKY/WX    TMP DP  RH WIND       PRES   REMARKS
WHITE PLAINS   CLEAR     76  72  87 CALM      29.91F
NEWBURGH       NOT AVBL
MONTGOMERY     MOCLDY    71  69  93 CALM      29.90F FOG
POUGHKEEPSIE   CLEAR     71  67  87 CALM      29.88F
ALBANY         MOCLDY    75  66  73 S6        29.86F
$$

NJZ001-105-106-008-010-013-015-019>022-104-301000-
NEW JERSEY

CITY           SKY/WX    TMP DP  RH WIND       PRES   REMARKS
NEWARK/LIBERTY MOCLDY    78  73  84 S9        29.90F
TETERBORO      CLEAR     78  71  79 S8        29.89F
CALDWELL       PTCLDY    76  71  85 VRB3      29.91S
MORRISTOWN     CLOUDY    75  72  88 S3        29.91S
SOMERVILLE     MOCLDY    71  69  93 CALM      29.89F FOG
SUSSEX         CLOUDY    71  68  90 CALM      29.91F FOG
ANDOVER          N/A     71  70  96 CALM      29.92F
TRENTON        CLEAR     75  72  90 S5        29.91F
MILLVILLE      PTCLDY    76  72  87 CALM      29.93F
ATLANTIC CITY  CLEAR     76  72  87 S8        29.94F
WRIGHTSTOWN    PTCLDY    72  71  99 SW3       29.91S
TOMS RIVER       N/A     73  72  94 SW6       29.94S
BELMAR         MOCLDY    73  66  78 SW5       29.93F
$$

PAZ047>061-062-071-301000-
EASTERN PENNSYLVANIA

CITY           SKY/WX    TMP DP  RH WIND       PRES   REMARKS
PHILADELPHIA   MOCLDY    78  72  81 S8        29.92F
ALLENTOWN      MOCLDY    75  72  88 CALM      29.91F
SCRANTON       CLOUDY    77  71  82 SW5       29.91F
$$

CTZ002-004>006-009-010-012-RIZ004-006-007-MAZ004-011-015-301000-
SOUTHERN NEW ENGLAND
 IN CT

CITY           SKY/WX    TMP DP  RH WIND       PRES   REMARKS
BRADLEY INTL   PTCLDY    72  68  87 S6        29.89S
HARTFORD       CLEAR     74  71  91 S5        29.89S
DANBURY        CLEAR     73  67  81 CALM      29.92F
WTRBRY/OXFORD  CLEAR     72  64  78 CALM      29.94F
BRIDGEPORT     CLEAR     77  73  87 SW6       29.91S
MERIDEN        CLEAR     71  68  90 CALM      29.91S FOG
NEW HAVEN      CLEAR     76  72  87 SW6       29.91S
CHESTER        FAIR      73  72  94 SW5       29.93S
GROTON         CLEAR     76  73  91 SW6       29.91R
WILLIMANTIC    CLEAR     69  66  90 CALM      29.91S

 IN RI

CITY           SKY/WX    TMP DP  RH WIND       PRES   REMARKS
PROVIDENCE     CLEAR     74  71  91 SW7       29.90S
BLOCK ISLAND     N/A     72  70  94 SW16      29.93S
WESTERLY       PTCLDY    73  72  96 CALM      29.92S FOG

 IN MA

CITY           SKY/WX    TMP DP  RH WIND       PRES   REMARKS
BOSTON         PTCLDY    76  67  73 SW7       29.88S
WORCESTER      CLEAR     71  65  81 W8        29.93S
WESTFIELD      CLEAR     67  65  93 SW3       29.89F
PROVINCETOWN   CLEAR     72  64  78 SW8       29.89S
NANTUCKET      CLOUDY    72  70  93 SW9       29.92S FOG
$$

ANZ330-335-338-340-345-350-353-355-301000-
COASTAL MARINE OBSERVATIONS


STATION/POSITION TIME  SKY/WX   TEMP    WIND        PRES    VSBY  WAVE
                                AIR SEA DIR/SP/G                  HT/PER
                 (UTC)          (F)     (DEG/KT/KT) (MB)    (MI)  (FT/S)
NY HARB ENTRANCE 0850            77 76  210/ 12/ 14 1012.8          3/ 9
4S FIRE IS       NOT AVBL
20S FIRE ISLAND  0850            76 74  220/ 12/ 14 1013.2          4/ 9
GREAT SOUTH BAY  0800            77 81  250/ 14/ 17   N/A
23SW MTP         0850            76 74  240/ 16/ 17 1013.0          4/10
HUDSON CANYON    NOT AVBL
KINGS POINT      0800            78                 1012.3
EXECUTION ROCKS  0800            75     200/  4/  4   N/A
CENTRAL LI SOUND NOT AVBL
EASTERN LI SOUND 0800            71 68  280/  2/  4   N/A
ROBBINS REEF     0800            77                 1011.9
$$


>>>>>>>>>>>>>>>>>>>>>>>>>>>> KEY <<<<<<<<<<<<<<<<<<<<<<<<<<<
>                                                          <
>     SKY/WX - SKY CONDITION/PRESENT WEATHER               <
>     TMP    - TEMPERATURE IN FAHRENHEIT                   <
>     DP     - DEWPOINT IN FAHRENHEIT                      <
>     RH     - RELATIVE HUMIDITY IN PERCENT                <
>     WIND   - DIRECTION AND SPEED IN MPH                  <
>     PRES   - MEAN SEA LEVEL PRESSURE IN INCHES OF HG     <
>     WCI    - WIND CHILL INDEX                            <
>     VSB    - VISIBILITY IN MILES                         <
>     HX     - HEAT INDEX                                  <
>     TC     - TEMPERATURE IN CELSIUS                      <
>     VRB    - VARIABLE WIND DIRECTION                     <
>                                                          <
>>>>>>>>>>>>>>>>>>>>>>>>>>>> KEY <<<<<<<<<<<<<<<<<<<<<<<<<<<




USA.gov is the U.S. government's official web portal to all federal, state and local government web resources and services.